This is the latest recevied weather packets stored in our database for station/object VK6WB. If no packets are shown the sender has not sent any weather packets the latest 10 day(s).
| Time | Temp. | Humidity | Pressure | Rain* | Wind** | Luminosity | Snow |
|---|---|---|---|---|---|---|---|
| 1778131805 | 22.22° C | 35% | 1023.9 hPa | 0 mm | - | 34 W/m² | - |
| 1778131204 | 22.22° C | 35% | 1023.9 hPa | 0 mm | - | 34 W/m² | - |
| 1778130604 | 22.22° C | 35% | 1024 hPa | 0 mm | - | 34 W/m² | - |
| 1778130005 | 22.22° C | 35% | 1024.3 hPa | 0 mm | - | 34 W/m² | - |
| 1778129404 | 21.67° C | 37% | 1024.5 hPa | 0 mm | - | 34 W/m² | - |
| 1778128805 | 21.67° C | 38% | 1024.7 hPa | 0 mm | - | 34 W/m² | - |
| 1778128205 | 21.11° C | 38% | 1024.9 hPa | 0 mm | - | 34 W/m² | - |
| 1778127604 | 20.56° C | 39% | 1025 hPa | 0 mm | - | 34 W/m² | - |
| 1778127004 | 20.56° C | 38% | 1025.3 hPa | 0 mm | - | 34 W/m² | - |
| 1778126405 | 20.56° C | 38% | 1025.5 hPa | 0 mm | - | 34 W/m² | - |
| 1778125805 | 20.56° C | 38% | 1025.6 hPa | 0 mm | - | 34 W/m² | - |
| 1778125204 | 20.56° C | 38% | 1025.9 hPa | 0 mm | - | 34 W/m² | - |
| 1778124604 | 20.56° C | 37% | 1026.1 hPa | 0 mm | - | 34 W/m² | - |
| 1778124004 | 20.56° C | 35% | 1026.2 hPa | 0 mm | - | 34 W/m² | - |
| 1778123404 | 20.56° C | 37% | 1026.2 hPa | 0 mm | - | 34 W/m² | - |
| 1778122805 | 20° C | 35% | 1026.3 hPa | 0 mm | - | 34 W/m² | - |
| 1778122204 | 20.56° C | 34% | 1026.4 hPa | 0 mm | - | 34 W/m² | - |
| 1778121605 | 20° C | 36% | 1026.5 hPa | 0 mm | - | 34 W/m² | - |
| 1778121004 | 20° C | 35% | 1026.6 hPa | 0 mm | - | 34 W/m² | - |
| 1778120405 | 19.44° C | 37% | 1026.8 hPa | 0 mm | - | 34 W/m² | - |
| 1778119804 | 16.11° C | 37% | 1027 hPa | 0 mm | - | 34 W/m² | - |
| 1778119204 | 18.33° C | 37% | 1027.1 hPa | 0 mm | - | 34 W/m² | - |
| 1778118605 | 17.22° C | 37% | 1027.2 hPa | 0 mm | - | 34 W/m² | - |
| 1778118005 | 17.78° C | 37% | 1027.4 hPa | 0 mm | - | 34 W/m² | - |
| 1778117404 | 17.22° C | 38% | 1027.3 hPa | 0 mm | - | 34 W/m² | - |
* Rain latest hour (hover to see other rain measurements)
** Current wind speed in m/s (hover to see current wind gust speed)